Location: Sevilla
(37.3933°N, 5.9839°W)
Time: 13:13:49
(UTC+02:00)

Transit 2A - Visible Passes

Search period start: 25 June 2024 00:00
Search period end: 05 July 2024 00:00
Orbit: 592 x 959 km, 66.7° (Epoch: 24 June)

Date Brightness Start Highest point End Pass type
(mag) Time Alt. Az. Time Alt. Az. Time Alt. Az.
25 Jun 7.8 00:54:03 10° N 00:59:27 30° NE 01:01:45 24° E visible
25 Jun 6.9 02:36:49 10° NW 02:42:08 48° W 02:42:08 48° W visible
26 Jun 8.2 00:19:15 10° N 00:23:56 22° NE 00:27:09 15° E visible
26 Jun 6.4 02:01:25 10° NNW 02:07:32 72° WSW 02:07:32 72° WSW visible
26 Jun 8.5 23:44:39 10° N 23:48:20 16° NE 23:52:04 10° E visible
27 Jun 6.3 01:26:09 10° NNW 01:32:27 80° ENE 01:33:00 73° ESE visible
27 Jun 8.4 03:11:21 10° WNW 03:13:23 14° W 03:13:23 14° W visible
27 Jun 8.7 23:10:37 10° NNE 23:12:40 12° NE 23:14:43 10° ENE visible
28 Jun 6.8 00:50:59 10° NNW 00:57:09 56° ENE 00:58:30 47° ESE visible
28 Jun 8.0 02:35:04 10° NW 02:38:54 23° W 02:38:54 23° W visible
29 Jun 7.3 00:15:55 10° NNW 00:21:47 40° NE 00:24:03 30° E visible
29 Jun 7.4 01:59:15 10° NW 02:04:27 34° W 02:04:27 34° W visible
29 Jun 7.7 23:40:57 10° N 23:46:20 29° NE 23:49:39 19° E visible
30 Jun 6.8 01:23:41 10° NW 01:29:46 51° WSW 01:30:03 51° WSW visible
30 Jun 8.1 23:06:09 10° N 23:10:48 21° NE 23:15:17 11° E visible
01 Jul 6.4 00:48:17 10° NNW 00:54:35 74° WSW 00:55:41 60° S visible
01 Jul 8.4 22:31:34 10° N 22:35:12 16° NE 22:38:52 10° E visible
02 Jul 6.4 00:13:01 10° NNW 00:19:21 78° ENE 00:21:22 46° SE visible
02 Jul 8.3 01:58:09 10° WNW 02:01:47 16° WSW 02:01:47 16° WSW visible
02 Jul 6.8 23:37:51 10° NNW 23:44:02 55° ENE 23:47:06 30° ESE visible
03 Jul 7.9 01:21:53 10° NW 01:26:49 24° WSW 01:27:31 24° WSW visible
03 Jul 7.2 23:02:47 10° NNW 23:08:39 39° NE 23:12:52 18° ESE visible
04 Jul 7.4 00:46:06 10° NW 00:51:46 36° WSW 00:53:17 31° SW visible
04 Jul 7.7 22:27:50 10° N 22:33:11 28° NE 22:38:33 10° ESE visible
